Regional Weather Roundup
Issued by NWS Austin/San Antonio, TX

Current Version | Previous Version | Text Only | Print | Product List | Glossary On
Versions: 1 2 3 4 5 6 7 8 9 10 11 12 13 14 15 16 17 18 19 20 21 22 23 24 25 26 27 28 29 30 31 32 33 34 35 36 37 38 39 40 41 42 43 44 45 46 47 48 49 50
000
ASUS44 KEWX 300413
RWREWX
SOUTH TEXAS REGIONAL WEATHER ROUNDUP
NATIONAL WEATHER SERVICE AUSTIN/SAN ANTONIO TX
1100 PM CDT THU SEP 29 2022

NOTE: "FAIR" INDICATED FEW OR NO CLOUDS BELOW 12,000 FEET WITH NO
SIGNIFICANT WEATHER AND/OR OBSTRUCTIONS TO VISIBILITY.

* - THESE STATIONS ARE NOT NWS OR FAA STATIONS...AND ARE NOT SUBJECT
    TO NWS AND FAA QUALITY CONTROL.

TXZ171-172-183>190-300500-
TEXAS HILL COUNTRY AND EDWARDS PLATEAU

CITY           SKY/WX    TMP DP  RH WIND       PRES   REMARKS
JUNCTION       CLEAR     68  49  50 NW5       30.13R
*LLANO         MOCLDY    66  48  52 E8        30.08R
BURNET         CLEAR     75  48  38 SE5       30.11S
*HORSESHOE BAY CLEAR     75  45  33 SE7       30.09R
*LAGO VISTA      N/A     73  48  41 E6        30.11R
*KERRVILLE     CLEAR     65  48  54 CALM      30.12S
*FREDERICKSBRG CLEAR     65  49  57 NW3       30.11S
*ROCKSPRINGS   PTCLDY    68  48  49 W5        30.20S
*BOERNE        CLEAR     68  46  45 W3        30.11R
*CASTROVILLE   CLEAR     77  46  33 CALM      30.09S
HONDO          CLEAR     72  49  44 W6        30.09R
*UVALDE        CLEAR     69  50  51 CALM      30.11S
DEL RIO        CLEAR     75  51  43 SE3       30.08S
*LAUGHLIN AFB  CLEAR     72  53  51 CALM      30.07R
*SPOFFORD      CLEAR     68  50  53 CALM      30.08S
CARRIZO SPRGS  CLEAR     72  50  46 SW5       30.07S
*FAITH RANCH   CLEAR     72  48  43 SE5       30.10S
$$

TXZ173-191>194-202-209-217>225-228-300500-
CENTRAL AND SOUTH CENTRAL TEXAS

CITY           SKY/WX    TMP DP  RH WIND       PRES   REMARKS
GEORGETOWN     CLEAR     74  49  41 CALM      30.11R
*TAYLOR        CLEAR     71  50  46 E6        30.08S
AUSTIN/BERGSTM CLEAR     74  50  42 E5        30.07R
AUSTIN/MABRY   CLEAR     77  49  37 VRB3      30.09R
*PFLUGERVILLE  PTCLDY    73  46  38 SE3       30.07S
SAN MARCOS     CLEAR    N/A N/A N/A E3          N/A
NEW BRAUNFELS  CLEAR     73  51  46 S5        30.06R
*RANDOLPH AFB  CLEAR     72  48  42 CALM      30.05R
*SEGUIN        CLEAR     74  51  44 SW3       30.04S
SAN ANTONIO    CLEAR     80  50  34 SW5       30.08R
STINSON FIELD  CLEAR     76  51  41 CALM      30.05R
*KELLY FIELD   CLEAR     72  50  45 CALM      30.05R
*PLEASANTON    CLEAR     71  53  53 CALM      30.07S
*KENEDY        CLEAR     73  55  54 S3        30.07S
*LA GRANGE     NOT AVBL
*GIDDINGS      CLEAR     71  49  46 E6        30.09S
*GONZALES      CLEAR     74  52  45 E5        30.07S
$$

TXZ163>164-176>182-195>201-210>213-226-227-235-300500-
SOUTHEAST TEXAS

CITY           SKY/WX    TMP DP  RH WIND       PRES   REMARKS
COLLEGE STN    CLEAR     72  48  42 E5        30.08S
*BRYAN         CLEAR     69  48  46 E6        30.11S
*CALDWELL      CLEAR     69  49  48 E3        30.09S
*CROCKETT      CLEAR     64  43  45 NE5       30.11S
*BRENHAM       CLEAR     71  50  47 CALM      30.09S
HUNTSVILLE     CLEAR     67  48  50 E3        30.10R
CONROE         CLEAR     67  48  50 NE6       30.10S
HOUSTON BUSH   CLEAR     72  45  37 NE10      30.09R
HOUSTON HOBBY  CLEAR     75  46  35 NE13      30.08R
*HOUSTON SW AP NOT AVBL
PEARLAND       CLEAR     72  51  47 NE5       30.09R
HOUSTON HOOKS  CLEAR     71  48  43 MISG      30.09R
ELLINGTON FLD  CLEAR     68  50  52 NE9       30.08R
SUGAR LAND     CLEAR     66  52  60 NE3       30.07R
*HOUSTON EXEC  CLEAR     68  54  60 CALM      30.09S
*CLEVELAND MUN NOT AVBL
*WHARTON       CLEAR     64  52  64 CALM      30.08S
*COLUMBUS      FAIR      63  51  66 CALM      30.08F
*EAGLE LAKE    CLEAR     66  52  60 MISG      30.07S
$$

TXZ214>216-236>238-300500-
THE UPPER TEXAS COAST

CITY           SKY/WX    TMP DP  RH WIND       PRES   REMARKS
*ORANGE        CLEAR     65  47  53 NE5       30.13R
PORT ARTHUR    CLEAR     66  46  48 NE10      30.09S
GALVESTON      CLEAR     73  52  47 NE13      30.08R
ANGLETON       CLEAR     61  55  81 N3        30.07S
*BAY CITY      CLEAR     62  59  88 CALM      30.07S
PALACIOS       CLEAR     68  60  75 NE5       30.06S
$$

TXZ229>234-239>247-300500-
TEXAS COASTAL BEND AND RIO GRANDE PLAINS

CITY           SKY/WX    TMP DP  RH WIND       PRES   REMARKS
VICTORIA       CLEAR     68  60  75 CALM      30.06S
*BEEVILLE      CLEAR     66  59  78 CALM      30.06S
ROCKPORT       CLEAR     68  62  81 S3        30.05S
*PORT ARANSAS  CLEAR    N/A N/A N/A SE5       30.07S
*PORT LAVACA   CLEAR     71  60  67 CALM      30.07R
*INGLESIDE     CLEAR     73  65  76 S5        30.05S
CORPUS CHRISTI CLEAR     73  61  65 S5        30.05F
CORPUS NAS     CLEAR     75  65  70 SW5       30.05S
*ROBSTOWN      CLEAR     71  58  62 MISG      30.06F
ALICE          CLEAR     68  62  81 SW5       30.06S
KINGSVILLE NAS CLEAR     69  64  84 S5        30.06S
COTULLA        CLEAR     71  53  52 CALM      30.07S
LAREDO         CLEAR     76  55  48 SE6       30.08R
$$

TXZ248>255-300500-
DEEP SOUTH TEXAS

CITY           SKY/WX    TMP DP  RH WIND       PRES   REMARKS
BROWNSVILLE    CLEAR     70  63  78 CALM      30.06F
PORT ISABEL    CLEAR     71  63  75 CALM      30.06F
HARLINGEN      CLEAR     70  63  78 SE3       30.06F
*HEBBRONVILLE  CLEAR     70  55  59 CALM      30.10S
MCALLEN        CLEAR     72  60  66 SE3       30.08S
*WESLACO       CLEAR     73  61  65 SE5       30.08S
FALFURRIAS     CLEAR     71  62  73 CALM      30.06S
EDINBURG       CLEAR     69  61  75 CALM      30.08S
*ZAPATA        CLEAR     70  66  88 CALM      30.09S
$$

TXZ213>215-236>238-242>244-246-247-251-254-255-300500-
CMAN STATIONS

STATION/POSITION TIME  TEMP    WIND        PRES    WAVE
                       AIR SEA DIR/SP/G            HT/PER
                 (UTC) (F)     (DEG/KT/KT) (MB)    (FT/S)
SEA RIM ST PARK  0400   63      70/  8/  8 1019.4
NORTH JETTY/GLS  0330   76 79   70/ 17/ 18 1017.1
EAGLE POINT      0330   77 78   50/ 14/ 18 1017.9
MORGANS POINT    0330   72 82   20/ 10/ 15 1018.0
MISSION/ARANSAS  0300   78     190/  5     1018.0
PORT O`CONNOR    0324   78 88  170/  3/  3 1017.5
PORT ARANSAS     0400   80     130/  6/  6   N/A
BAFFIN BAY       0324   79 83  130/  4/  5 1018.2
PORT ISABEL      0324   79 81   20/  2/  5 1017.7
$$



USA.gov is the U.S. government's official web portal to all federal, state and local government web resources and services.